[[{"header":{"parameterUnit":"m.s-1","parameterCategory":2,"la1":30.2991,"la2":30.254,"lo1":-89.0895,"lo2":-89.0444,"dy":0.0017,"dx":0.0017,"nx":28,"ny":28,"refTime":"2025-02-11T09:00:00:Z","depth":"0","parameterNumber":2,"parameterNumberName":"U-component_of_CURRENTS"},"data":[0,0,0,0,0,0,0,0,0,0,0,0,0,0,0,0,0,0,0,0,0,0,0,0,0,0,0,0,0,0,0,0,0,0,0,0,0,0,0,0,0,0,0,0,0,0,0,0,0,0,0,0,0,0,0,0,0,0,0.3617,0.3617,0,0.3624,0.3624,0.3624,0.3596,0.3596,0.3595,0.3595,0.3565,0.3565,0.3564,0,0,0,0,0,0,0,0,0,0,0,0,0,0.3593,0.3593,0.3617,0.3617,0.3617,0.3624,0.3624,0.3624,0.3597,0.3596,0.3595,0.3595,0.3565,0.3565,0.3564,0,0,0,0,0,0,0,0,0,0,0,0,0,0.3599,0.3593,0.3617,0.3607,0.3606,0.3624,0.3624,0.3624,0.3597,0.3596,0.3595,0.3594,0.3565,0.3565,0.3564,0.3577,0,0,0.3563,0.3563,0,0,0,0,0,0,0,0,0.3599,0.36,0.3608,0.3608,0.3607,0.3612,0.3605,0.3608,0.3597,0.3597,0.3595,0.3594,0.358,0.3578,0.3577,0.3576,0.3574,0.3563,0.3562,0.3562,0.3562,0,0,0,0,0,0,0,0.3598,0.3599,0.3616,0.3609,0.3608,0.3608,0.3607,0.3605,0.3589,0.3597,0.3596,0.3602,0.3579,0.3578,0.3576,0.3574,0.3563,0.3562,0.3562,0.3562,0.3621,0.3623,0,0,0,0,0,0,0.3604,0.3599,0.3616,0.3617,0.3605,0.3609,0.3608,0.3608,0.359,0.3588,0.3603,0.3601,0.3579,0.3577,0.3575,0.3616,0.3562,0.3562,0.3561,0.3619,0.3622,0.3624,0,0,0,0,0,0,0.3604,0.3605,0.3616,0.3611,0.3613,0.361,0.3611,0.3609,0.3613,0.3596,0.3592,0.3609,0.3578,0.3576,0.3587,0.3613,0.3562,0.3561,0.3617,0.362,0.3623,0.3681,0,0,0,0,0,0,0.3603,0.3605,0.3608,0.3611,0.3613,0.3633,0.3612,0.361,0.3619,0.3617,0.36,0.3596,0.3577,0.3588,0.3586,0.3612,0.3561,0.3615,0.3619,0.3622,0.3676,0.3685,0.3693,0,0,0,0,0,0.3602,0.3605,0.3608,0.361,0.3617,0.3634,0.3635,0.3629,0.3621,0.3628,0.3622,0.3597,0.3609,0.3589,0.3587,0.3613,0.3613,0.3618,0.3622,0.3673,0.3683,0.3692,0,0,0,0,0,0,0.3591,0.3604,0.3606,0.3612,0.3628,0.3631,0.3636,0.3638,0.3639,0.3636,0.3615,0.3612,0.3637,0.3621,0.3599,0.3643,0.361,0.3614,0.3649,0.3659,0.3667,0.3678,0.356,0,0,0,0,0,0.3594,0.36,0.3617,0.3622,0.3632,0.3638,0.3645,0.3647,0.365,0.3649,0.364,0.3639,0.3653,0.3651,0.3657,0.3674,0.3686,0.3693,0.3701,0.3708,0.3718,0.3768,0.3781,0.3638,0.3637,0.3637,0,0,0.3588,0.3599,0.36,0.3621,0.3628,0.3652,0.3639,0.3656,0.3676,0.3647,0.3664,0.3668,0.3667,0.3692,0.3701,0.3678,0.3757,0.3713,0.3719,0.3725,0.3773,0.3787,0.38,0.364,0.364,0.3639,0,0,0.3587,0.3594,0.3603,0.3623,0.365,0.3662,0.3673,0.3688,0.3694,0.3718,0.3712,0.3736,0.3738,0.3751,0.3757,0.3816,0.3804,0.3815,0.3856,0.3904,0.3916,0.3927,0.3966,0.398,0.3812,0.3812,0.3812,0,0.3582,0.3596,0.361,0.3633,0.3651,0.3671,0.3695,0.3713,0.373,0.3748,0.373,0.3778,0.3772,0.3822,0.3841,0.3834,0.3855,0.3814,0.3914,0.3925,0.3935,0.3973,0.3987,0.3816,0.3815,0.3815,0.3815,0,0.3594,0.361,0.3619,0.3656,0.3681,0.3704,0.3739,0.3764,0.3778,0.38,0.3852,0.3855,0.3884,0.3891,0.3879,0.3952,0.3944,0.3923,0.3887,0.3953,0.3989,0.4003,0.382,0.3819,0.3818,0.3817,0,0,0.3562,0.3617,0.3618,0.3637,0.3696,0.3711,0.3765,0.3816,0.3859,0.3882,0.3935,0.3967,0.3978,0.3988,0.3986,0.4023,0.4109,0.4002,0.4003,0.4037,0.4218,0.418,0.4191,0.4105,0.4108,0.411,0.4217,0,0.3565,0.3601,0.3637,0.3674,0.3696,0.3745,0.3794,0.3848,0.3898,0.3957,0.3989,0.4039,0.4013,0.4035,0.4072,0.4108,0.4148,0.4082,0.4153,0.4155,0.4109,0.4206,0.406,0.414,0.423,0.4233,0.4234,0,0.356,0.3587,0.3621,0.3682,0.3697,0.373,0.3815,0.3866,0.397,0.4016,0.4084,0.4112,0.4184,0.4144,0.4243,0.4202,0.4218,0.4235,0.4239,0.4193,0.4143,0.4089,0.4162,0.4041,0.4255,0.4254,0.4252,0,0.3512,0.357,0.3592,0.3613,0.3693,0.372,0.3771,0.3877,0.394,0.4062,0.4119,0.4207,0.4255,0.4301,0.4337,0.4299,0.4441,0.4389,0.4371,0.4368,0.4253,0.4235,0.4212,0.446,0.446,0.446,0.446,0,0.3491,0.3504,0.3567,0.3577,0.3615,0.3687,0.3755,0.3835,0.3964,0.4038,0.4138,0.4211,0.4298,0.4376,0.4389,0.4441,0.4487,0.4408,0.4406,0.4269,0.4252,0.4147,0.4079,0.4464,0.4463,0.4462,0.4462,0,0.3428,0.3469,0.3496,0.3569,0.359,0.3617,0.3731,0.3788,0.3927,0.403,0.407,0.4245,0.4355,0.4433,0.4531,0.4509,0.4431,0.4554,0.4389,0.4365,0.4203,0.4144,0.4008,0.3886,0.4551,0.4551,0.4551,0,0.3398,0.3406,0.3468,0.3478,0.3506,0.3561,0.36,0.3749,0.3818,0.4029,0.4066,0.4239,0.4339,0.4505,0.4525,0.4582,0.4423,0.4448,0.4342,0.4203,0.4136,0.3975,0.387,0.4217,0.4214,0.4212,0.421,0,0.3345,0.3366,0.3387,0.341,0.3435,0.347,0.3539,0.3591,0.3757,0.3861,0.4006,0.4121,0.4317,0.4341,0.4447,0.4453,0.4227,0.44,0.4298,0.392,0.37,0.3578,0.4138,0.4189,0.4191,0.4193,0.4194,0.4195,0.3297,0.3292,0.3316,0.3323,0.3346,0.3351,0.3343,0.3435,0.3525,0.3643,0.3842,0.395,0.4112,0.4262,0.4245,0.4128,0.4096,0.3987,0.3946,0.3811,0.3624,0.4145,0.4162,0.4164,0.4165,0.4167,0.4168,0,0.3218,0.3215,0.3225,0.3213,0.3181,0.3238,0.327,0.3244,0.3271,0.3447,0.3566,0.3698,0.3773,0.3864,0.3857,0.3698,0.3532,0.3577,0.3308,0.3241,0.3754,0.367,0.3527,0.3527,0.3528,0.3528,0.3528,0.3528,0.3176,0.3138,0.3132,0.304,0.3028,0.2941,0.2926,0.2923,0.2999,0.3056,0.3127,0.3276,0.3502,0.3595,0.3468,0.337,0.307,0.2935,0.2912,0.3273,0.3307,0.3339,0.3244,0.3015,0.3015,0.2274,0.2268,0.2264]},{"header":{"parameterUnit":"m.s-1","parameterCategory":2,"la1":30.2991,"la2":30.254,"lo1":-89.0895,"lo2":-89.0444,"dy":0.0017,"dx":0.0017,"nx":28,"ny":28,"refTime":"2025-02-11T09:00:00:Z","depth":"0","parameterNumber":3,"parameterNumberName":"V-component_of_CURRENTS"},"data":[0,0,0,0,0,0,0,0,0,0,0,0,0,0,0,0,0,0,0,0,0,0,0,0,0,0,0,0,0,0,0,0,0,0,0,0,0,0,0,0,0,0,0,0,0,0,0,0,0,0,0,0,0,0,0,0,0,0,0.0205,0.0205,0,0.0158,0.0158,0.0157,0.0119,0.0119,0.0119,0.0118,0.0047,0.0046,0.0044,0,0,0,0,0,0,0,0,0,0,0,0,0,0.0196,0.0196,0.0205,0.0205,0.0204,0.0159,0.0158,0.0157,0.0119,0.0119,0.0118,0.0118,0.0048,0.0046,0.0044,0,0,0,0,0,0,0,0,0,0,0,0,0,0.0178,0.0197,0.0205,0.0181,0.0179,0.0159,0.0158,0.0157,0.0119,0.0119,0.0118,0.0118,0.0049,0.0046,0.0044,0.0035,0,0,0.0036,0.0035,0,0,0,0,0,0,0,0,0.0179,0.0178,0.0185,0.0183,0.018,0.0146,0.0128,0.0115,0.0119,0.014,0.0118,0.0118,0.008,0.0074,0.0064,0.0031,0.0028,0.0036,0.0034,0.0033,0.0032,0,0,0,0,0,0,0,0.018,0.0179,0.0184,0.0185,0.0182,0.0151,0.0148,0.0125,0.011,0.0138,0.0135,0.0133,0.0078,0.0067,0.0062,0.0027,0.0036,0.0034,0.0032,0.0031,-0.001,-0.001,0,0,0,0,0,0,0.0194,0.0181,0.0186,0.0183,0.0181,0.0151,0.0148,0.0156,0.0111,0.0104,0.0134,0.0132,0.0071,0.0065,0.0059,0.0068,0.0033,0.0031,0.0029,-0.001,-0.001,-0.0009,0,0,0,0,0,0,0.0194,0.0195,0.0188,0.0182,0.0179,0.0153,0.016,0.0155,0.0148,0.0108,0.0101,0.0133,0.0071,0.0063,0.0049,0.0064,0.003,0.0027,-0.0011,-0.001,-0.001,0.007,0,0,0,0,0,0,0.0194,0.0196,0.0203,0.0183,0.018,0.0189,0.0161,0.0154,0.0148,0.0145,0.0105,0.0098,0.007,0.0053,0.0046,0.006,0.0025,-0.0011,-0.0011,-0.001,0.0067,0.0073,0.0079,0,0,0,0,0,0.0194,0.0215,0.0204,0.0204,0.0192,0.019,0.0185,0.0163,0.0148,0.0153,0.0126,0.01,0.0053,0.0052,0.0044,0.0056,-0.0012,-0.0011,-0.001,0.0064,0.0072,0.0079,0,0,0,0,0,0,0.0215,0.0212,0.02,0.0218,0.0208,0.0184,0.0186,0.017,0.0151,0.0146,0.0107,0.0098,0.0089,0.0062,0.0061,0.0046,0.0016,0.0015,0.0075,0.0082,0.0087,0.0111,0.0023,0,0,0,0,0,0.0224,0.0237,0.0225,0.0237,0.0236,0.021,0.0205,0.0191,0.0173,0.0164,0.0137,0.0107,0.0086,0.0076,0.005,0.0046,0.0014,0.0047,0.0053,0.0058,0.0072,0.0036,0.004,-0.0006,-0.0006,-0.0006,0,0,0.0234,0.0234,0.024,0.0242,0.023,0.0245,0.0206,0.0206,0.0218,0.0159,0.0163,0.0126,0.0088,0.0082,0.0075,0.0063,0.0053,0.006,0.0065,0.0075,0.0037,0.0042,0.0046,-0.0006,-0.0006,-0.0006,0,0,0.0269,0.0262,0.0287,0.0287,0.028,0.0268,0.0274,0.0255,0.0244,0.024,0.0201,0.0178,0.0145,0.0124,0.0109,0.0132,0.0083,0.0119,0.0174,0.0139,0.0143,0.0146,0.0108,0.0106,0.0126,0.0126,0.0126,0,0.028,0.0314,0.0292,0.0318,0.0328,0.0287,0.032,0.0304,0.0283,0.0284,0.0252,0.0206,0.0168,0.0168,0.0172,0.0147,0.0117,0.0152,0.0148,0.015,0.0152,0.0112,0.011,0.013,0.013,0.0129,0.0129,0,0.0338,0.0361,0.0377,0.0399,0.0405,0.0424,0.0408,0.0403,0.0379,0.0366,0.0352,0.0293,0.027,0.0248,0.0216,0.0215,0.0185,0.0157,0.0134,0.0162,0.0117,0.0114,0.0136,0.0134,0.0133,0.0132,0,0,0.0375,0.0413,0.0418,0.0448,0.0453,0.0469,0.0482,0.0493,0.0518,0.0465,0.0488,0.0427,0.039,0.0369,0.0319,0.0284,0.0259,0.0233,0.0229,0.0203,0.0179,0.0179,0.0174,0.023,0.0229,0.0229,0.0143,0,0.0428,0.0502,0.0502,0.0568,0.0607,0.0581,0.0604,0.0603,0.0592,0.06,0.0524,0.0521,0.0439,0.0429,0.0381,0.03,0.0254,0.0285,0.015,0.0146,0.0148,0.0171,0.021,0.0139,0.0139,0.0138,0.0138,0,0.049,0.0535,0.0612,0.0669,0.0683,0.071,0.075,0.0771,0.076,0.0752,0.0721,0.0661,0.0607,0.0525,0.0393,0.0417,0.0307,0.0226,0.0221,0.0193,0.0139,0.011,0.0131,-0.0039,0.0131,0.0132,0.0132,0,0.0543,0.0614,0.0683,0.0702,0.0753,0.0776,0.0801,0.0816,0.0865,0.0853,0.0876,0.0788,0.0762,0.0611,0.044,0.0415,0.0289,0.0231,0.012,0.0118,0.0113,0.0111,-0.0037,0.0126,0.0126,0.0126,0.0127,0,0.0608,0.0663,0.0713,0.0752,0.0842,0.0847,0.094,0.0949,0.0993,0.107,0.0963,0.0997,0.0782,0.0677,0.049,0.0314,0.0324,0.014,0.0102,0.0141,0.0143,-0.0038,-0.0143,0.0123,0.0124,0.0124,0.0125,0,0.0659,0.0687,0.0777,0.0843,0.0871,0.0938,0.1043,0.1118,0.1134,0.1226,0.1225,0.1167,0.1039,0.0811,0.0587,0.0407,0.012,0.0141,0.0201,0.0173,-0.0094,-0.0195,-0.0391,-0.0461,0.0002,0.0001,0.0001,0,0.0693,0.0744,0.0849,0.0914,0.0948,0.1047,0.1126,0.1187,0.1284,0.1341,0.1401,0.1305,0.1285,0.0962,0.063,0.0313,0.012,0.0119,0.0072,-0.0091,-0.0233,-0.0315,-0.0365,0.0085,0.0086,0.0086,0.0086,0,0.0765,0.0797,0.0873,0.1005,0.1101,0.1226,0.1343,0.1443,0.1519,0.1609,0.1708,0.1692,0.1388,0.1118,0.0676,0.044,0.0015,0.0115,-0.007,-0.0185,-0.0268,-0.0357,0.0114,0.0089,0.0089,0.0088,0.0088,0.0088,0.0818,0.0885,0.0982,0.1111,0.1228,0.1383,0.1503,0.1651,0.1827,0.1972,0.1947,0.1983,0.155,0.0978,0.0638,0.0046,0.0015,-0.0138,-0.025,-0.0321,-0.0377,0.0105,0.005,0.005,0.0049,0.0049,0.0049,0,0.0886,0.0961,0.1083,0.1237,0.1377,0.1427,0.1637,0.178,0.2005,0.215,0.2252,0.2078,0.1556,0.0981,0.0179,-0.0237,-0.0395,-0.0472,-0.0587,-0.0625,-0.0206,-0.0188,-0.0275,-0.0275,-0.0275,-0.0274,-0.0274,-0.0274,0.0923,0.1041,0.1103,0.133,0.1445,0.1642,0.1769,0.1997,0.2161,0.2367,0.2415,0.2408,0.194,0.0534,-0.0393,-0.0592,-0.0893,-0.0961,-0.1117,-0.0843,-0.082,-0.0799,-0.0807,-0.1022,-0.1023,-0.146,-0.1465,-0.1469]}],[{"header":{"parameterUnit":"m.s-1","parameterCategory":2,"la1":30.2991,"la2":30.254,"lo1":-89.0895,"lo2":-89.0444,"dy":0.0017,"dx":0.0017,"nx":28,"ny":28,"refTime":"2025-02-11T09:00:00:Z","depth":"2","parameterNumber":2,"parameterNumberName":"U-component_of_CURRENTS"},"data":[0,0,0,0,0,0,0,0,0,0,0,0,0,0,0,0,0,0,0,0,0,0,0,0,0,0,0,0,0,0,0,0,0,0,0,0,0,0,0,0,0,0,0,0,0,0,0,0,0,0,0,0,0,0,0,0,0,0,0.3115,0.3115,0,0.3134,0.3134,0.3134,0.3126,0.3126,0.3126,0.3126,0.3121,0.3121,0.3121,0,0,0,0,0,0,0,0,0,0,0,0,0,0.3074,0.3074,0.3115,0.3115,0.3116,0.3134,0.3134,0.3134,0.3126,0.3126,0.3126,0.3126,0.3121,0.3121,0.3121,0,0,0,0,0,0,0,0,0,0,0,0,0,0.3089,0.3075,0.3115,0.3116,0.3117,0.3134,0.3134,0.3134,0.3126,0.3126,0.3126,0.3126,0.3121,0.3121,0.3121,0.3127,0,0,0.3121,0.3121,0,0,0,0,0,0,0,0,0.3089,0.3091,0.3116,0.3116,0.3117,0.313,0.3117,0.3131,0.3127,0.312,0.3126,0.3125,0.3123,0.3123,0.3124,0.3127,0.3126,0.3121,0.3121,0.3121,0.3121,0,0,0,0,0,0,0,0.3087,0.309,0.312,0.3116,0.3117,0.3117,0.3118,0.312,0.3121,0.3121,0.3121,0.3127,0.3123,0.3124,0.3124,0.3126,0.3121,0.3121,0.3121,0.3121,0.3192,0.3193,0,0,0,0,0,0,0.3091,0.3089,0.3119,0.312,0.3105,0.3118,0.3119,0.3124,0.3121,0.3121,0.3127,0.3127,0.3124,0.3124,0.3124,0.3175,0.3121,0.3121,0.3121,0.319,0.3192,0.3194,0,0,0,0,0,0,0.309,0.3093,0.3118,0.3107,0.3111,0.3119,0.3124,0.3124,0.3137,0.3127,0.3126,0.3141,0.3124,0.3123,0.3144,0.3173,0.3121,0.3121,0.3188,0.3191,0.3193,0.3249,0,0,0,0,0,0,0.3089,0.3093,0.3101,0.3107,0.3112,0.3138,0.3124,0.3125,0.3142,0.3142,0.3139,0.3137,0.3124,0.3144,0.3144,0.3172,0.3121,0.3185,0.3189,0.3192,0.3244,0.3253,0.326,0,0,0,0,0,0.3087,0.3095,0.3101,0.3105,0.3121,0.314,0.3142,0.3144,0.3143,0.3154,0.3157,0.3138,0.3166,0.3145,0.3145,0.3173,0.3184,0.3188,0.3192,0.3241,0.3251,0.326,0,0,0,0,0,0,0.3078,0.3096,0.3102,0.3114,0.3133,0.3139,0.315,0.3155,0.3166,0.3169,0.3156,0.3155,0.3188,0.3176,0.3154,0.3207,0.3174,0.3178,0.3212,0.3221,0.3229,0.3238,0.3121,0,0,0,0,0,0.3082,0.3093,0.3113,0.3124,0.3136,0.3147,0.3157,0.3164,0.3174,0.3179,0.3179,0.3186,0.3204,0.3208,0.3217,0.324,0.3249,0.3262,0.3269,0.3276,0.3286,0.333,0.3342,0.3208,0.3208,0.3208,0,0,0.3079,0.3093,0.3098,0.3124,0.3136,0.3159,0.3152,0.3175,0.3197,0.3177,0.3205,0.3214,0.3218,0.3249,0.3262,0.3241,0.3321,0.3281,0.3287,0.3293,0.3335,0.3349,0.336,0.321,0.321,0.3209,0,0,0.3081,0.3097,0.3109,0.313,0.3161,0.3174,0.3187,0.3208,0.3221,0.3252,0.3252,0.3281,0.3294,0.3309,0.3317,0.3375,0.3365,0.3379,0.342,0.3463,0.3474,0.3484,0.3517,0.3529,0.3378,0.3378,0.3378,0,0.308,0.3099,0.3117,0.314,0.316,0.3185,0.3209,0.3232,0.3258,0.3279,0.327,0.3327,0.3326,0.3377,0.3398,0.3393,0.3412,0.3379,0.3472,0.3482,0.3492,0.3523,0.3536,0.3381,0.3381,0.338,0.338,0,0.3093,0.3115,0.3126,0.3165,0.3191,0.3216,0.3254,0.3285,0.3307,0.3331,0.3391,0.3402,0.3435,0.3445,0.3437,0.3508,0.3499,0.348,0.3445,0.3508,0.3537,0.355,0.3385,0.3384,0.3383,0.3383,0,0,0.3066,0.3124,0.3127,0.3147,0.3207,0.3223,0.328,0.3333,0.3378,0.3412,0.3468,0.3507,0.3523,0.3535,0.3539,0.3574,0.3654,0.3557,0.3558,0.3585,0.375,0.369,0.3697,0.3651,0.3654,0.3656,0.3745,0,0.307,0.3107,0.3143,0.3183,0.3205,0.3257,0.3308,0.3364,0.3418,0.3481,0.3519,0.3577,0.3555,0.3584,0.3618,0.3653,0.3689,0.3631,0.369,0.3692,0.3625,0.371,0.3409,0.3459,0.3757,0.3759,0.3761,0,0.3065,0.3093,0.313,0.3192,0.3209,0.3244,0.3332,0.3384,0.3489,0.3539,0.3609,0.3644,0.3718,0.3684,0.3774,0.374,0.3752,0.3769,0.3772,0.3704,0.3654,0.3444,0.347,0.3782,0.378,0.3778,0.3777,0,0.3017,0.3078,0.3103,0.3125,0.3207,0.3239,0.3292,0.3398,0.3461,0.3587,0.3647,0.3734,0.3787,0.3827,0.386,0.3829,0.3951,0.3907,0.3864,0.3859,0.3608,0.3577,0.3969,0.3969,0.3969,0.3968,0.3968,0,0.2995,0.3012,0.3082,0.3094,0.3138,0.3211,0.3284,0.3364,0.3492,0.3565,0.3669,0.3742,0.3828,0.3897,0.3906,0.3935,0.399,0.3895,0.3888,0.362,0.3591,0.3867,0.3854,0.3972,0.3971,0.397,0.397,0,0.2932,0.2978,0.3008,0.3089,0.3114,0.3147,0.3265,0.3324,0.3462,0.3565,0.3611,0.3777,0.3875,0.3943,0.4029,0.3992,0.4026,0.4014,0.3696,0.365,0.389,0.388,0.3981,0.398,0.3979,0.3978,0.3977,0,0.2901,0.2912,0.2983,0.2999,0.3033,0.3097,0.3143,0.3291,0.3357,0.3565,0.36,0.3764,0.3843,0.3971,0.3953,0.398,0.4033,0.3699,0.3582,0.3914,0.3897,0.3888,0.3878,0.3271,0.3265,0.326,0.3256,0,0.2844,0.2873,0.2897,0.2931,0.2969,0.301,0.3085,0.3132,0.3298,0.3395,0.3526,0.3623,0.3767,0.3678,0.3739,0.3704,0.3674,0.3595,0.4033,0.3322,0.3254,0.3235,0.3247,0.3209,0.3213,0.3217,0.3219,0.3221,0.2796,0.2795,0.2827,0.2846,0.2882,0.2893,0.2888,0.2975,0.3053,0.3153,0.3334,0.3373,0.3442,0.3393,0.3302,0.3228,0.3477,0.33,0.3312,0.333,0.3239,0.3174,0.3096,0.31,0.3103,0.3106,0.3109,0,0.272,0.2724,0.2739,0.274,0.2721,0.2788,0.2819,0.2783,0.2796,0.2931,0.3019,0.2827,0.2805,0.2862,0.2686,0.2703,0.2635,0.2582,0.2451,0.2503,0.2547,0.2411,0.2051,0.2047,0.2043,0.204,0,0,0.2679,0.2647,0.2644,0.257,0.2574,0.2497,0.2483,0.2461,0.2498,0.2481,0.2482,0.271,0.2808,0.2389,0.2348,0.2162,0.2308,0.2082,0.2942,0.2842,0.2881,0.2988,0.2842,0,0,0,0,0]},{"header":{"parameterUnit":"m.s-1","parameterCategory":2,"la1":30.2991,"la2":30.254,"lo1":-89.0895,"lo2":-89.0444,"dy":0.0017,"dx":0.0017,"nx":28,"ny":28,"refTime":"2025-02-11T09:00:00:Z","depth":"2","parameterNumber":3,"parameterNumberName":"V-component_of_CURRENTS"},"data":[0,0,0,0,0,0,0,0,0,0,0,0,0,0,0,0,0,0,0,0,0,0,0,0,0,0,0,0,0,0,0,0,0,0,0,0,0,0,0,0,0,0,0,0,0,0,0,0,0,0,0,0,0,0,0,0,0,0,0.0205,0.0205,0,0.0162,0.0162,0.0161,0.0129,0.0129,0.0129,0.0129,0.0069,0.0068,0.0067,0,0,0,0,0,0,0,0,0,0,0,0,0,0.0202,0.0203,0.0205,0.0205,0.0204,0.0162,0.0162,0.0161,0.0129,0.0129,0.0129,0.0129,0.007,0.0068,0.0067,0,0,0,0,0,0,0,0,0,0,0,0,0,0.0185,0.0203,0.0205,0.0184,0.0182,0.0163,0.0162,0.0161,0.0129,0.0129,0.0129,0.0129,0.007,0.0068,0.0066,0.0059,0,0,0.006,0.0059,0,0,0,0,0,0,0,0,0.0186,0.0185,0.0188,0.0186,0.0183,0.0152,0.0139,0.0126,0.0129,0.0148,0.0129,0.0128,0.0096,0.0092,0.0083,0.0056,0.0053,0.006,0.0058,0.0057,0.0057,0,0,0,0,0,0,0,0.0187,0.0186,0.0187,0.0188,0.0185,0.0157,0.0155,0.0136,0.0123,0.0146,0.0144,0.0142,0.0095,0.0085,0.0082,0.0052,0.006,0.0058,0.0057,0.0056,0.002,0.002,0,0,0,0,0,0,0.0198,0.0188,0.0189,0.0186,0.0185,0.0158,0.0155,0.0161,0.0124,0.0118,0.0142,0.014,0.0089,0.0084,0.0079,0.0087,0.0058,0.0056,0.0054,0.0019,0.002,0.002,0,0,0,0,0,0,0.0199,0.0199,0.019,0.0186,0.0183,0.0159,0.0165,0.0161,0.0155,0.012,0.0114,0.0142,0.0089,0.0082,0.0072,0.0083,0.0055,0.0053,0.0019,0.002,0.002,0.0089,0,0,0,0,0,0,0.0199,0.02,0.0206,0.0187,0.0184,0.019,0.0166,0.016,0.0154,0.0151,0.0118,0.0112,0.0088,0.0075,0.007,0.008,0.0051,0.0019,0.0019,0.002,0.0086,0.0092,0.0097,0,0,0,0,0,0.0199,0.0217,0.0207,0.0207,0.0195,0.0191,0.0187,0.0167,0.0154,0.0159,0.0136,0.0113,0.0074,0.0074,0.0067,0.0077,0.0018,0.0019,0.002,0.0084,0.0091,0.0096,0,0,0,0,0,0,0.0219,0.0215,0.0204,0.0219,0.0209,0.0186,0.0187,0.0173,0.0158,0.0154,0.012,0.0113,0.0105,0.0082,0.0082,0.0067,0.0042,0.0041,0.0093,0.0099,0.0104,0.0124,0.0049,0,0,0,0,0,0.0227,0.0238,0.0225,0.0236,0.0233,0.021,0.0205,0.0192,0.0176,0.0169,0.0146,0.012,0.0102,0.0094,0.0072,0.0068,0.0037,0.0068,0.0073,0.0078,0.0089,0.0051,0.0054,0.0022,0.0022,0.0022,0,0,0.0235,0.0235,0.024,0.024,0.0228,0.0241,0.0206,0.0205,0.0215,0.0165,0.0169,0.0137,0.0104,0.0099,0.0093,0.0082,0.0069,0.0079,0.0083,0.0092,0.0052,0.0055,0.0058,0.0023,0.0023,0.0023,0,0,0.0266,0.026,0.0282,0.0281,0.0273,0.0262,0.0266,0.0248,0.0239,0.0236,0.0203,0.0181,0.0154,0.0135,0.0121,0.014,0.0095,0.0129,0.0175,0.0138,0.014,0.0142,0.0104,0.0101,0.0134,0.0134,0.0134,0,0.0276,0.0306,0.0286,0.0308,0.0316,0.0279,0.0307,0.0293,0.0274,0.0274,0.0247,0.0205,0.0173,0.017,0.0175,0.0153,0.0123,0.0157,0.0146,0.0147,0.0147,0.0107,0.0104,0.0138,0.0137,0.0137,0.0137,0,0.0327,0.0347,0.036,0.038,0.0384,0.04,0.0385,0.0381,0.036,0.0346,0.0331,0.028,0.0259,0.0238,0.0213,0.0206,0.0179,0.0155,0.0134,0.0155,0.0111,0.0106,0.0143,0.0141,0.014,0.014,0,0,0.0358,0.0391,0.0396,0.0423,0.0427,0.044,0.0452,0.0459,0.0478,0.0432,0.0446,0.0395,0.036,0.0342,0.0297,0.0261,0.0232,0.0217,0.0213,0.0186,0.0148,0.0132,0.0124,0.0205,0.0204,0.0204,0.0115,0,0.0405,0.0469,0.047,0.0528,0.0562,0.0539,0.056,0.0557,0.0543,0.0543,0.0475,0.047,0.0403,0.0393,0.0346,0.0267,0.0224,0.0259,0.0126,0.0122,0.0111,0.012,0.0148,0.0071,0.011,0.0109,0.0109,0,0.0458,0.0498,0.0567,0.0616,0.0628,0.0652,0.0684,0.07,0.0684,0.0673,0.0641,0.0586,0.0533,0.0466,0.0338,0.0363,0.0265,0.019,0.0185,0.0145,0.0098,0.0055,0.0061,0.01,0.0101,0.0101,0.0102,0,0.0505,0.0567,0.0628,0.0646,0.069,0.0711,0.0732,0.0739,0.0777,0.0759,0.0773,0.0689,0.0658,0.0523,0.0365,0.0352,0.0213,0.0174,0.0063,0.006,0.0046,0.0043,0.0076,0.0077,0.0077,0.0077,0.0077,0,0.0562,0.061,0.0655,0.069,0.0768,0.0772,0.0849,0.0854,0.0883,0.094,0.0848,0.0864,0.0671,0.0564,0.0401,0.0226,0.0238,0.0076,0.0039,0.007,0.007,0.0066,0.0066,0.0074,0.0074,0.0075,0.0076,0,0.0606,0.0632,0.071,0.0769,0.0793,0.085,0.0939,0.0999,0.1006,0.1073,0.1072,0.1002,0.0869,0.066,0.0449,0.0292,0.0113,0.0043,0.0092,0.0063,-0.003,-0.0025,-0.009,-0.0091,-0.0092,-0.0093,-0.0094,0,0.0636,0.068,0.0773,0.0828,0.0857,0.0944,0.1012,0.106,0.1135,0.1164,0.1205,0.11,0.1051,0.0733,0.0441,0.0154,0.0112,-0.0017,-0.0042,-0.0016,-0.0046,-0.0039,-0.0033,-0.004,-0.0041,-0.0041,-0.0041,0,0.0695,0.0723,0.0789,0.0904,0.0986,0.1095,0.1192,0.127,0.1326,0.1385,0.1434,0.1393,0.1094,0.0818,0.042,0.0227,0.0029,-0.0031,-0.0015,0.0005,0.0025,-0.0002,0.0003,-0.0043,-0.0043,-0.0042,-0.0042,-0.0042,0.0737,0.0792,0.0876,0.0987,0.109,0.122,0.1317,0.143,0.1559,0.164,0.16,0.1546,0.1216,0.0723,0.0377,0.0013,0.0031,-0.0103,-0.0101,-0.0098,-0.0069,-0.0051,-0.0128,-0.0129,-0.0129,-0.0129,-0.0129,0,0.0789,0.0851,0.0954,0.1085,0.1205,0.1256,0.1423,0.1523,0.1679,0.1747,0.1788,0.1479,0.1161,0.0776,0.0238,-0.008,-0.01,-0.018,-0.014,-0.0136,-0.0132,-0.0104,-0.0174,-0.0175,-0.0176,-0.0177,0,0,0.0815,0.0913,0.0964,0.1153,0.1254,0.1417,0.1516,0.1666,0.1756,0.1833,0.1809,0.1742,0.1272,0.0875,0.044,0.0127,0.0072,0.0071,0.0143,0.0247,0.0254,-0.0051,0.0003,0,0,0,0,0]}],[{"header":{"parameterUnit":"m.s-1","parameterCategory":2,"la1":30.2991,"la2":30.254,"lo1":-89.0895,"lo2":-89.0444,"dy":0.0017,"dx":0.0017,"nx":28,"ny":28,"refTime":"2025-02-11T09:00:00:Z","depth":"4","parameterNumber":2,"parameterNumberName":"U-component_of_CURRENTS"},"data":[0,0,0,0,0,0,0,0,0,0,0,0,0,0,0,0,0,0,0,0,0,0,0,0,0,0,0,0,0,0,0,0,0,0,0,0,0,0,0,0,0,0,0,0,0,0,0,0,0,0,0,0,0,0,0,0,0,0,0.207,0.2071,0,0.2137,0.2138,0.2138,0.22,0.2201,0.2202,0.2202,0.2284,0.2285,0.2287,0,0,0,0,0,0,0,0,0,0,0,0,0,0.198,0.1981,0.207,0.2071,0.2072,0.2137,0.2138,0.2139,0.22,0.2201,0.2202,0.2203,0.2284,0.2285,0.2287,0,0,0,0,0,0,0,0,0,0,0,0,0,0.2028,0.1981,0.207,0.2112,0.2116,0.2137,0.2138,0.2139,0.2199,0.2201,0.2202,0.2203,0.2283,0.2285,0.2287,0.2271,0,0,0.2293,0.2294,0,0,0,0,0,0,0,0,0.2025,0.2031,0.2104,0.2109,0.2114,0.2163,0.2136,0.2184,0.2199,0.2166,0.2202,0.2204,0.2245,0.225,0.2257,0.2275,0.2278,0.2293,0.2294,0.2295,0.2296,0,0,0,0,0,0,0,0.2022,0.2029,0.2094,0.2105,0.2111,0.2123,0.2131,0.2145,0.2195,0.2169,0.2174,0.2184,0.2248,0.2255,0.2259,0.228,0.2293,0.2295,0.2296,0.2297,0.2423,0.2426,0,0,0,0,0,0,0.2017,0.2025,0.2092,0.2097,0.2075,0.2123,0.2132,0.2144,0.2195,0.2205,0.2183,0.2187,0.2251,0.2257,0.2262,0.2364,0.2295,0.2297,0.2298,0.2421,0.2424,0.2426,0,0,0,0,0,0,0.2015,0.2022,0.209,0.2064,0.2074,0.2124,0.2136,0.2145,0.2197,0.2206,0.2216,0.2232,0.2252,0.226,0.2319,0.2364,0.2298,0.23,0.2419,0.2422,0.2425,0.2493,0,0,0,0,0,0,0.2012,0.2021,0.2049,0.2064,0.2075,0.2129,0.2136,0.2145,0.22,0.2207,0.225,0.2257,0.2254,0.2316,0.2321,0.2365,0.2301,0.2416,0.242,0.2424,0.2488,0.2498,0.2507,0,0,0,0,0,0.2009,0.2031,0.205,0.2059,0.2105,0.2131,0.2138,0.2176,0.2201,0.2228,0.2265,0.2258,0.2346,0.232,0.2325,0.237,0.2414,0.2419,0.2424,0.2484,0.2496,0.2507,0,0,0,0,0,0,0.2008,0.204,0.2061,0.2094,0.2126,0.2143,0.2178,0.22,0.225,0.2273,0.2281,0.229,0.236,0.2357,0.2328,0.2421,0.238,0.2387,0.2424,0.2436,0.2445,0.2448,0.2303,0,0,0,0,0,0.2019,0.205,0.2076,0.211,0.2129,0.2163,0.2188,0.2214,0.2249,0.2275,0.2305,0.2342,0.2375,0.2401,0.2426,0.2472,0.2473,0.2508,0.2517,0.2525,0.2532,0.2573,0.2586,0.2443,0.2443,0.2442,0,0,0.2028,0.2052,0.2072,0.2114,0.2144,0.2176,0.2183,0.2234,0.2273,0.2274,0.2352,0.2379,0.2397,0.2454,0.2485,0.2462,0.2569,0.2532,0.2538,0.2541,0.258,0.2593,0.2606,0.2446,0.2445,0.2445,0,0,0.2045,0.2086,0.2114,0.2143,0.2197,0.2216,0.2241,0.2286,0.2326,0.239,0.2408,0.2464,0.2514,0.2536,0.255,0.2627,0.2618,0.2645,0.2694,0.2734,0.2745,0.2756,0.2777,0.2789,0.2648,0.2648,0.2648,0,0.2061,0.2095,0.2127,0.216,0.2192,0.2239,0.2275,0.2316,0.238,0.2416,0.243,0.2531,0.255,0.2614,0.2647,0.2649,0.2666,0.2646,0.2745,0.2755,0.2765,0.2784,0.2796,0.2652,0.2651,0.2651,0.265,0,0.2082,0.2128,0.215,0.2207,0.2245,0.2288,0.234,0.2399,0.2455,0.2491,0.2587,0.2621,0.2679,0.27,0.2699,0.2782,0.277,0.2752,0.2711,0.2783,0.2799,0.281,0.2657,0.2656,0.2655,0.2654,0,0,0.2061,0.2148,0.2161,0.2196,0.2278,0.2303,0.2385,0.2455,0.252,0.2592,0.267,0.274,0.2773,0.2792,0.281,0.2849,0.2931,0.2839,0.2839,0.2852,0.3019,0.2827,0.282,0.2936,0.2939,0.2941,0.3004,0,0.2073,0.2133,0.218,0.225,0.2284,0.2358,0.2425,0.2502,0.258,0.2668,0.2726,0.2811,0.2803,0.2854,0.2892,0.2929,0.2965,0.2915,0.2955,0.2956,0.2769,0.2827,0.2948,0.3012,0.3014,0.3016,0.3017,0,0.2068,0.2113,0.218,0.2273,0.2298,0.2356,0.2475,0.2544,0.2669,0.2737,0.2829,0.288,0.297,0.295,0.3041,0.3015,0.3027,0.3041,0.3043,0.2845,0.2783,0.2926,0.3037,0.3036,0.3034,0.3033,0.3032,0,0.2011,0.2107,0.2164,0.2196,0.231,0.2371,0.2446,0.2572,0.2645,0.2798,0.2868,0.297,0.3041,0.3082,0.3116,0.3097,0.3196,0.3163,0.2997,0.2984,0.3108,0.3096,0.3219,0.3219,0.3219,0.3218,0.3218,0,0.1976,0.2026,0.2152,0.2179,0.2261,0.2356,0.2463,0.2558,0.2702,0.2778,0.2906,0.2969,0.3083,0.3143,0.3153,0.3105,0.3226,0.3012,0.2989,0.3136,0.3126,0.3116,0.3103,0.3221,0.322,0.322,0.3219,0,0.1897,0.1981,0.2052,0.2187,0.2236,0.2299,0.2461,0.2529,0.2687,0.2794,0.285,0.3004,0.3075,0.3149,0.3224,0.3129,0.312,0.3072,0.3234,0.3219,0.2872,0.2863,0.2882,0.2876,0.2871,0.2866,0.2863,0,0.1855,0.1888,0.204,0.2086,0.2157,0.2267,0.2337,0.2507,0.2571,0.2776,0.28,0.2946,0.3017,0.2966,0.3063,0.3065,0.3028,0.2998,0.2918,0.2863,0.284,0.2839,0.2836,0.2854,0.2853,0.2852,0.285,0,0.1776,0.1854,0.1913,0.201,0.2094,0.2166,0.2276,0.2306,0.2483,0.2646,0.2684,0.2723,0.2793,0.2837,0.2864,0.2859,0.3003,0.2942,0.2952,0.2876,0.2829,0.2811,0.2815,0.2832,0.2834,0.2836,0.2837,0,0.1726,0.1747,0.184,0.1905,0.2001,0.2027,0.2103,0.2162,0.2244,0.2456,0.2461,0.2612,0.2759,0.2731,0.2757,0.2739,0.2688,0.2587,0.2614,0.2635,0.2524,0.2426,0.2288,0,0,0,0,0,0.166,0.1666,0.1722,0.1776,0.1863,0.1919,0.204,0.2116,0.2277,0.224,0.2343,0.2393,0.243,0.2515,0.2446,0.2651,0.2705,0.2558,0.2604,0.273,0.2751,0.2642,0,0,0,0,0,0,0.1613,0.1663,0.1674,0.1652,0.1666,0.1739,0.1811,0.1924,0.1905,0.208,0.2114,0.2246,0.2323,0.2445,0.2401,0.2424,0.2401,0.2657,0.2651,0.2718,0.2737,0.2754,0.2649,0,0,0,0,0]},{"header":{"parameterUnit":"m.s-1","parameterCategory":2,"la1":30.2991,"la2":30.254,"lo1":-89.0895,"lo2":-89.0444,"dy":0.0017,"dx":0.0017,"nx":28,"ny":28,"refTime":"2025-02-11T09:00:00:Z","depth":"4","parameterNumber":3,"parameterNumberName":"V-component_of_CURRENTS"},"data":[0,0,0,0,0,0,0,0,0,0,0,0,0,0,0,0,0,0,0,0,0,0,0,0,0,0,0,0,0,0,0,0,0,0,0,0,0,0,0,0,0,0,0,0,0,0,0,0,0,0,0,0,0,0,0,0,0,0,0.016,0.0159,0,0.0131,0.0131,0.0131,0.0112,0.0112,0.0112,0.0112,0.0071,0.007,0.0069,0,0,0,0,0,0,0,0,0,0,0,0,0,0.0157,0.0157,0.016,0.0159,0.0159,0.0131,0.0131,0.0131,0.0112,0.0112,0.0112,0.0112,0.0072,0.0071,0.0069,0,0,0,0,0,0,0,0,0,0,0,0,0,0.0146,0.0157,0.016,0.0147,0.0146,0.0132,0.0131,0.013,0.0112,0.0112,0.0112,0.0112,0.0072,0.0071,0.0069,0.0062,0,0,0.0065,0.0064,0,0,0,0,0,0,0,0,0.0147,0.0146,0.0149,0.0148,0.0146,0.0126,0.0115,0.0107,0.0112,0.0124,0.0112,0.0112,0.0089,0.0086,0.008,0.006,0.0058,0.0064,0.0063,0.0063,0.0062,0,0,0,0,0,0,0,0.0147,0.0147,0.0148,0.0149,0.0147,0.0129,0.0127,0.0113,0.0107,0.0123,0.0122,0.012,0.0088,0.0082,0.0079,0.0058,0.0064,0.0063,0.0062,0.0062,0.0036,0.0036,0,0,0,0,0,0,0.0154,0.0148,0.0149,0.0147,0.0147,0.0129,0.0127,0.0132,0.0107,0.0104,0.012,0.0119,0.0084,0.0081,0.0078,0.0086,0.0063,0.0061,0.0061,0.0035,0.0036,0.0036,0,0,0,0,0,0,0.0155,0.0155,0.015,0.0147,0.0145,0.013,0.0134,0.0131,0.013,0.0105,0.0101,0.0122,0.0084,0.008,0.0074,0.0084,0.0061,0.0059,0.0035,0.0035,0.0036,0.0091,0,0,0,0,0,0,0.0155,0.0155,0.0161,0.0148,0.0145,0.0151,0.0135,0.0131,0.0129,0.0128,0.0106,0.0101,0.0084,0.0076,0.0072,0.0081,0.0058,0.0035,0.0035,0.0036,0.0089,0.0093,0.0097,0,0,0,0,0,0.0155,0.0168,0.0162,0.0162,0.0154,0.0152,0.0149,0.0137,0.0129,0.0134,0.0119,0.0102,0.0076,0.0076,0.0071,0.0079,0.0035,0.0035,0.0036,0.0087,0.0093,0.0097,0,0,0,0,0,0,0.017,0.0167,0.016,0.0172,0.0165,0.0149,0.0152,0.0142,0.0134,0.0132,0.0108,0.0103,0.0099,0.0081,0.0081,0.0072,0.0051,0.0051,0.0092,0.0097,0.0101,0.0117,0.0057,0,0,0,0,0,0.0176,0.0186,0.0176,0.0185,0.0183,0.0168,0.0165,0.0157,0.0147,0.0143,0.0128,0.011,0.0097,0.0091,0.0075,0.0073,0.0046,0.0074,0.0078,0.0081,0.009,0.0055,0.0057,0.0037,0.0037,0.0037,0,0,0.0184,0.0183,0.0188,0.0188,0.0181,0.0192,0.0166,0.0168,0.0177,0.014,0.0147,0.0123,0.0098,0.0096,0.0093,0.0084,0.0071,0.0082,0.0085,0.0093,0.0056,0.0058,0.006,0.0038,0.0038,0.0038,0,0,0.0207,0.0204,0.022,0.0221,0.0217,0.021,0.0213,0.0202,0.0198,0.0198,0.0173,0.0158,0.014,0.0125,0.0114,0.013,0.0093,0.0122,0.0158,0.0124,0.0125,0.0126,0.0092,0.0089,0.0125,0.0126,0.0126,0,0.0215,0.0238,0.0224,0.0241,0.0249,0.0223,0.0246,0.0237,0.0226,0.0227,0.0209,0.0178,0.0155,0.0152,0.0157,0.014,0.0113,0.0144,0.013,0.013,0.013,0.0095,0.0091,0.0128,0.0128,0.0128,0.0127,0,0.0252,0.027,0.0281,0.0297,0.0302,0.0316,0.0307,0.0307,0.0295,0.0286,0.0277,0.0237,0.0222,0.0207,0.0188,0.018,0.0158,0.0138,0.0121,0.0136,0.0097,0.0092,0.0132,0.0131,0.013,0.013,0,0,0.0272,0.0302,0.0307,0.033,0.0336,0.0348,0.0361,0.037,0.0386,0.0354,0.0366,0.0329,0.0303,0.0288,0.0254,0.0221,0.0194,0.0186,0.0183,0.0158,0.0117,0.0098,0.0091,0.017,0.017,0.0169,0.0089,0,0.0307,0.0358,0.0361,0.041,0.0437,0.0425,0.0445,0.0447,0.0438,0.044,0.0388,0.0385,0.0336,0.0329,0.0288,0.0221,0.0185,0.0218,0.0101,0.0098,0.0084,0.0086,0.0168,0.0085,0.0084,0.0083,0.0083,0,0.0344,0.0376,0.0433,0.0478,0.0489,0.0512,0.0543,0.0559,0.0549,0.0543,0.0518,0.0476,0.0431,0.0382,0.0271,0.0294,0.0215,0.0152,0.0147,0.0109,0.0071,0.0066,0.0074,0.0074,0.0075,0.0076,0.0076,0,0.0373,0.0427,0.0479,0.0494,0.0536,0.056,0.0582,0.0592,0.0623,0.0611,0.0622,0.0552,0.0525,0.0416,0.0284,0.0279,0.0151,0.0125,0.0031,0.0028,0.0045,0.0044,0.0044,0.0044,0.0044,0.0044,0.0045,0,0.041,0.0452,0.0499,0.0528,0.0596,0.0607,0.0674,0.0682,0.0708,0.0749,0.0683,0.0684,0.0532,0.0438,0.0308,0.0158,0.0167,0.004,0.0008,0.0069,0.0072,0.0041,0.0042,0.0041,0.0042,0.0043,0.0043,0,0.0433,0.0462,0.0528,0.0587,0.0613,0.0663,0.0746,0.0794,0.0807,0.0853,0.0853,0.0786,0.0663,0.0498,0.0318,0.02,0.0051,-0.0007,0.0075,0.0049,-0.0057,-0.0052,-0.0117,-0.0118,-0.0119,-0.012,-0.0121,0,0.0449,0.0485,0.0575,0.0623,0.0655,0.0735,0.0795,0.0842,0.0894,0.0913,0.0932,0.0838,0.0764,0.0506,0.0324,0.007,0.0029,-0.0055,-0.0063,-0.0048,-0.0073,-0.0066,-0.0061,-0.0123,-0.0123,-0.0123,-0.0123,0,0.0478,0.0511,0.0566,0.0668,0.0744,0.0836,0.0917,0.0962,0.101,0.1023,0.0999,0.0865,0.0724,0.0513,0.0316,0.0132,-0.0005,-0.0068,-0.0067,-0.0074,-0.0056,-0.0078,-0.0071,-0.0127,-0.0127,-0.0126,-0.0126,0,0.0499,0.0541,0.0615,0.0707,0.0807,0.0899,0.0946,0.1001,0.1052,0.106,0.1049,0.0898,0.0814,0.0545,0.0365,0.018,0.0126,0.0053,0.0046,0.0048,0.0112,0.0161,0.0133,0,0,0,0,0,0.0517,0.0564,0.0647,0.0747,0.085,0.0912,0.1011,0.1049,0.1089,0.1081,0.1068,0.0935,0.0674,0.057,0.0383,0.0325,0.0081,0.0096,-0.0008,-0.0148,-0.0144,-0.01,0,0,0,0,0,0,0.0525,0.0601,0.0642,0.0766,0.084,0.0958,0.1025,0.1057,0.1052,0.106,0.0934,0.0872,0.0627,0.0781,0.0376,0.0321,0.0224,-0.002,-0.0025,-0.0151,-0.0147,-0.0143,-0.0096,0,0,0,0,0]}]]